Погода Пильво

Погода Пильво : погода сейчас, прогноз погоды и архив. Всё, что Вы хотите узнать о погоде Пильво!

Хотите узнать прогноз погоды Пильво? Тогда Вам сюда: Погода Пильво

Поиск расширенной информации на нашем сайте:

Другие новости

Новости СМИ2

Главная страница сайта

Новости сайта

03.07.2017

Напоминаем, что на нашем специализированном сайте Метеоцентр.Азия вы можете получить высокодетализированные автоматические прогнозы погоды по пунктам России, СНГ и мира в авиационном формате (включающие направление и скорость ветра, видимость, явления погоды, количество и форму облачности, нижнюю и верхнюю границу облачности).


Погода Пильво - сегодня

Время (UTC), дата Ветер
(°,м/с) 
Видим.   Явления Облачность Т
(°С)
Тd
(°С)
f(%) Тe
(°С)
Pmin
(гПа)
dP
(гПа)
Po
(мм)
O2
(г/м3)
Тmin Tmax R s Состояние
почвы
06 20.10.17 250 (З) 1-2{04}  20000 м    3/1 600 м верхняя 
[Cu med, cong|Ci fib]
+5.9 +0.1 66 +7  1023.3  -0.2  767  303           
09 20.10.17 110 (В) 5-7{07}  20000 м    8/8 600 м 
[Sc]
+1.6 +0.2 90 -1  1023.7  0.4  767  307    +7.7       
12 20.10.17 110 (В) 5-7{08}  н/о    н/о 
+1.4 +0 90 -1  1023.9  0.2  767  308           
15 20.10.17 120 (ЮВ) 5-9{09}  н/о    н/о 
+1.4 +0.1 91 -1  1022.3  -1.6  766  307           
18 20.10.17 110 (В) 5-7{09}  н/о    н/о 
+2.7 +2 95 1021.4  -0.9  766  305           
21 20.10.17 120 (ЮВ) 6-8{08}  20000 м  в посл. час ливневой дождь  10/10 600 м кучево-дожд. 
[Cb cap]
+3 +2.3 95 1019.2  -2.1  764  304  +0.8      влажная 
00 21.10.17 110 (В) 5-8{08}  20000 м  в посл. час ливневой дождь  10/8 600 м кучево-дожд., средняя 
[Cb cap|Ac As]
+6.5 +4.6 88 +5  1017.5  -1.8  763  299           
03 21.10.17 120 (ЮВ) 5-8{10}  10 км  слаб. ливневой дождь  10/10 600 м кучево-дожд. 
[Cb cap]
+7.6 +6.1 90 +6  1014.5  -2.9  761  297           
06 21.10.17 160 (Ю) 6-17{19}  20000 м  {ливн. осадки}  10/10 600 м кучево-дожд. 
[Cb cap]
+11.1 +7.7 80 +10  1013.5  -1  760  293           
09 21.10.17 170 (Ю) 5-11{17}  10 км  слаб. ливневой дождь  10/10 600 м кучево-дожд. 
[Cb cap]
+10.7 +7.9 83 +10  1012.5  -1  759  293    +11.2     
12 21.10.17 130 (ЮВ) 2-4{15}  н/о    н/о 
+6.7 +5.3 91 +7  1013.4  0.9  760  298           
15 21.10.17 280 (З) 9-11{11}  н/о    н/о 
+7.1 +1.8 69 +4  1012.7  -0.6  759  298           
18 21.10.17 290 (З) 7-9{12}  н/о    н/о 
+4.9 -1.9 61 +2  1013.7  0.9  760  301           
21 21.10.17 260 (З) 5-8{11}  20000 м    ясно 
+3.4 -4.4 57 +1  1014.4  0.7  760  303  +3.3    16    влажная 
00 22.10.17 230 (ЮЗ) 9-12{13}  20000 м    3/3 600 м 
[Cu med, cong]
+3.5 -4.7 55 1013.9  -0.5  760  303  -0.3         
06 22.10.17 270 (З) 8-11{16}  20000 м    6/6 600 м 
[Sc diur, vesp]
+2.3 -6 54 -1  1013.6  0.4  760  304           
12 22.10.17 300 (СЗ) 8-10{12}  н/о    н/о 
+3.2 -4 59 1015.5  1.1  761  304           
15 22.10.17 280 (З) 7-9{12}  н/о    н/о 
+3.4 -3.4 61 1014.7  -0.8  761  303           
18 22.10.17 300 (СЗ) 8-10{10}  н/о    н/о 
+3.8 -2.6 63 1013.8  -0.9  760  302           
21 22.10.17 310 (СЗ) 8-11{12}  20000 м    6/3 600 м верхняя 
[Sc|Ci fib]
+3.7 -2.8 62 1013  -0.7  759  302  +3        влажная 
00 23.10.17 330 (СЗ) 7-9{11}  20000 м    10/8 600 м верхняя 
[Sc|Ci fib]
+4.1 -2.8 61 +1  1012.8  -0.2  759  302           
03 23.10.17 330 (СЗ) 9-13{13}  20000 м    9/4 600 м верхняя 
[Sc|Ci fib]
+3.6 -3.3 61 1010  -2.8  757  301           
06 23.10.17 330 (СЗ) 8-11{14}  20000 м    8/3 600 м верхняя 
[Sc|Ci fib]
+3.6 -2.3 65 1008.1  -1.9  756  301           
09 23.10.17 090 (В) 1-3{11}  20000 м    10/6 600 м верхняя 
[Sc|Ci fib]
+1.9 -3.8 66 +3  1007.5  -0.6  755  303    +4.1       
12 23.10.17 120 (ЮВ) 3-4{06}  н/о    н/о 
-0.4 -3.2 81 -2  1007.4  0.1  755  305           
Время (UTC), дата Ветер
(°,м/с) 
Видим.   Явления Облачность Т
(°С)
Тd
(°С)
f(%) Тe
(°С)
Pmin
(гПа)
dP
(гПа)
Po
(мм)
O2
(г/м3)
Тmin Tmax R s Состояние
почвы

Для получения пояснительной информации подведите курсор к названию столбца.

ПОГОДА Пильво - архив

Всё, что Вы хотите узнать о погоде Пильво - удобно и подробно!

Выберите нужную дату (начиная с 1 января 2015* года) и нажмите кнопку "Найти".
Будут отображены архивные сводки погоды по пункту Пильво, начиная с указанной даты.


Отображать данные в формате CSV (для использования в таблицах Excel)


Внимание! Наш архив погоды предназначен исключительно для личного некоммерческого использования в познавательных целях. Если Вам необходимы официальные справки о состоянии погоды (для производственных, юридических, коммерческих и т.п. целей), обращайтесь в органы Росгидромета.

*Примечание: данная дата относится к архиву по метеостанциям СССР (Россия, СНГ, Балтия).
Архив по метеостанциям Зарубежной Европы и Азии (кроме Китая) хранится 10 дней, по другим регионам земного шара (Китай, Африка, Америка, Австралия, Океания) - 1 день.

Пильво - район местоположения метеостанции


Название, широта, долгота, высота метеостанции:
Пильво 50.1°ш. 142.2°д. 4 м над ур. моря [Российская Федерация]

Дополнительная информация

В oтличие oт бoльшинства пoгoдных сайтoв мы публикуем пoдрoбную метеoинфoрмацию в детальнoм прoфессиoнальнoм фoрмате.

Характеристики температуры и влажнoсти вoздуха измеряются на высoте 2 м в тени вдали oт зданий и деревьев.
Скoрoсть ветра измеряется на высoте 10 м (на урoвне рoста челoвека скoрoсть ветра ниже в 1.5-2 раза). Если метеoстанция нахoдится в гoрoде или в лесу, тo скoрoсть ветра занижена на 2-4 м/с пo сравнению с oткрытым местoм. Скoрoсть ветра над акватoриями крупных рек и oзёр, а также на вершинах хoлмoв на 2-5 м/с выше, чем в oбычных услoвиях.
Атмoсфернoе давление в разных тoчках местнoсти мoжет значительнo oтличаться oт давления на метеoстанции, в зависимoсти oт услoвий рельефа (при пoдъёме на 10 м давление пoнижается примернo на 1 мм рт.ст.).